LELLGEML

Guest
Details From LELL - Sabadell
To GEML - MELILLA
Flight Number -
Tags decoded
Created
Modified
Stats Distance 459 nm / 851 km
Max Altitude 0 ft / 0 m
Waypoints 3
Social Downloads 0
Likes 0
Share VATSIM

Download

Looking for another format? Having issues loading an existing format? Contact us
Advertisement - Login to hide

Notes

Requested: LELL BERUM GEML

Route

LELL BERUM GEML

ID Type Via Altitude Latitude Longitude Leg Dist Tot Dist Heading (true) Name
O LELL APT - 0 ft / 0 m 41.52098˚ 2.10491˚ - 0 nm - Sabadell
BERUM FIX - 0 ft / 0 m 35.83333˚ -3.23583˚ 423 nm 423 nm 218° / 215° -
O GEML APT - 0 ft / 0 m 35.28037˚ -2.95671˚ 35 nm 459 nm 158° / 158° MELILLA

Altitude Profile

Advertisement - Login to hide

Weather


0- 5 10 15 20 25 30 35+ Temperature / ° C

Clouds and Precipitation
Forecast for 2018-05-25 12:00 UTC. Updated 4 hours ago

Ground ~20,000 ft ~40,000 ft Winds

LELL

Details ICAO LELL (QSA)
Name Sabadell
Region Spain
Timezone Europe/Madrid (UTC+2.0)
Stats Elevation 465 ft / 142 m (AMSL)
Location 41.520977° 2.104912°
Runways 1
Magnetic Variation 0.871° E

METAR

LELL 251500Z 08009KT 030V150 CAVOK 26/10 Q1014

Decode

TAF

TAF LELL 251400Z 2515/2615 08009KT 9999 FEW030 TX26/2613Z TN16/2606Z TEMPO 2515/2520 09014G28KT TEMPO 2611/2615 10014G28KT

Decode

Departure Runways

ID Width Length Bearing (true) Bearing (mag) Surface Threshold Offset Overrun Length
13 98 ft / 30 m 2,956 ft / 901 m 127.50° 126.63° Asphalt 0 ft / 0 m 0 ft / 0 m
31 98 ft / 30 m 2,956 ft / 901 m 307.50° 306.63° Asphalt 0 ft / 0 m 0 ft / 0 m

GEML

Details ICAO GEML (MLN)
Name MELILLA
Region Ceuta and Melilla
Timezone Africa/Casablanca (UTC+0.0)
Stats Elevation 156 ft / 48 m (AMSL)
Location 35.280374° -2.956708°
Runways 1
Magnetic Variation 0.406° W

METAR

GEML 251500Z 29009KT 250V330 9999 FEW030 22/13 Q1013

Decode

TAF

TAF GEML 251400Z 2515/2615 29009KT 9999 SCT020 TX23/2614Z TN17/2605Z

Decode

Destination Runways

ID Width Length Bearing (true) Bearing (mag) Surface Threshold Offset Overrun Length
15 148 ft / 45 m 4,811 ft / 1,466 m 146.39° 146.80° Asphalt 755 ft / 230 m 0 ft / 0 m
33 148 ft / 45 m 4,811 ft / 1,466 m 326.40° 326.81° Asphalt 0 ft / 0 m 0 ft / 0 m

Popular Alternatives